Location: Hemaruka
(51.7801°N, 111.0917°W)
Time: 07:29:14
(UTC+00:00)

CAS-4B - Pass Details

Date: 04 December 2023
Orbit: 485 x 503 km, 43.0° (Epoch: 24 February)

Event Time Altitude Azimuth Distance (km) Brightness Sun altitude
Rises 02:24:32 0° 257° (WSW) 2,568 ? -28.0°
Reaches altitude 10° 02:27:15 10° 238° (WSW) 1,679 ? -28.4°
Enters shadow 02:28:42 16° 217° (SW) 1,359 ? -28.6°
